Location: Unspecified
(0.0000°N, 0.0000°E)
Time: 22:16:45
(UTC+02:00)

Iridium 12 - Visible Passes

Search period start: 30 September 2016 00:00
Search period end: 10 October 2016 00:00
Orbit: 776 x 779 km, 86.4° (Epoch: 30 September)

Date Brightness Start Highest point End Pass type
(mag) Time Alt. Az. Time Alt. Az. Time Alt. Az.
30 Sep 8.8 06:54:12 10° SE 06:57:19 16° E 07:00:25 10° NE visible
01 Oct 8.3 20:33:44 10° NW 20:37:42 22° W 20:41:42 10° SW visible
02 Oct 6.4 07:25:43 10° SSE 07:30:50 58° E 07:35:56 10° NNE visible
03 Oct 8.0 06:53:06 10° SE 06:57:23 26° E 07:01:38 10° NE visible
04 Oct 9.0 06:22:23 10° ESE 06:23:55 11° E 06:25:28 10° ENE visible
04 Oct 8.9 20:35:16 10° WNW 20:37:46 14° W 20:40:17 10° WSW visible
06 Oct 7.0 06:52:33 10° SSE 06:57:26 42° E 07:02:19 10° NNE visible
07 Oct 8.3 06:20:23 10° SE 06:23:59 19° E 06:27:34 10° NE visible
09 Oct 5.9 06:52:19 10° S 06:57:31 69° E 07:02:40 10° N visible
